�N����,����,�~����,�C��,���x,�C��,����,���ϕ���,�ő�u�ԕ���,�ő厞����,���˗�,�I�_���x,�n�����x,�ő啗���N��,DTYPE
"22/06/15","00:10",0.0,16.9,94.4,1008.1,2.1,0.7,2.0,13.7,0.00,16.0,18.5,"00:00:02",1
"22/06/15","00:20",0.0,17.0,94.3,1008.1,339.7,1.1,4.3,324.6,0.00,16.1,18.7,"00:10:32",1
"22/06/15","00:30",0.0,17.0,94.2,1008.1,352.2,0.7,1.9,336.7,0.00,16.1,18.6,"00:27:12",1
"22/06/15","00:40",0.0,17.1,94.2,1007.8,316.0,0.6,1.8,263.9,0.00,16.2,18.8,"00:30:16",1
"22/06/15","00:50",0.0,17.1,94.1,1007.6,13.0,0.5,1.1,321.4,0.00,16.2,18.5,"00:46:48",1
"22/06/15","01:00",0.0,17.1,94.0,1007.4,58.6,0.6,1.8,70.0,0.00,16.2,18.6,"00:54:16",1
"22/06/15","01:10",0.0,17.0,94.0,1007.4,62.0,0.6,1.2,93.5,0.00,16.1,18.6,"01:04:08",1
"22/06/15","01:20",0.0,17.0,93.7,1007.4,64.1,0.7,1.8,20.5,0.00,16.0,18.7,"01:15:12",1
"22/06/15","01:30",0.0,17.1,93.5,1007.4,85.4,1.0,2.7,135.1,0.00,16.1,18.5,"01:26:48",1
"22/06/15","01:40",0.0,17.2,93.3,1007.6,23.3,0.7,1.4,113.3,0.00,16.1,18.7,"01:30:16",1
"22/06/15","01:50",0.0,17.3,93.0,1007.6,22.2,0.6,1.9,106.5,0.00,16.2,18.7,"01:47:36",1
"22/06/15","02:00",0.0,17.4,92.7,1007.6,337.8,0.6,1.7,333.7,0.00,16.2,18.5,"01:52:16",1
"22/06/15","02:10",0.0,17.4,92.4,1007.1,336.1,0.6,1.8,122.5,0.00,16.2,18.5,"02:06:24",1
"22/06/15","02:20",0.0,17.4,92.2,1007.1,10.4,0.6,1.2,15.0,0.00,16.2,18.7,"02:13:04",1
"22/06/15","02:30",0.0,17.4,91.9,1007.4,350.4,0.5,1.4,293.9,0.00,16.1,18.5,"02:20:02",1
"22/06/15","02:40",0.0,17.4,91.8,1007.1,332.3,0.6,1.3,16.1,0.00,16.1,18.6,"02:32:24",1
"22/06/15","02:50",0.0,17.4,91.8,1006.9,332.2,0.6,1.3,306.8,0.00,16.1,18.4,"02:43:12",1
"22/06/15","03:00",0.0,17.4,91.7,1006.7,325.2,0.6,1.6,340.1,0.00,16.1,18.5,"02:59:20",1
"22/06/15","03:10",0.0,17.4,91.6,1007.1,319.2,0.5,1.6,106.7,0.00,16.1,18.4,"03:01:12",1
"22/06/15","03:20",0.0,17.4,91.5,1007.1,316.8,0.3,1.0,120.6,0.00,16.0,18.3,"03:19:12",1
"22/06/15","03:30",0.0,17.4,91.5,1006.9,289.3,0.3,0.9,334.7,0.00,16.0,18.6,"03:27:04",1
"22/06/15","03:40",0.0,17.4,91.5,1006.9,331.6,0.5,1.4,89.7,0.00,16.0,18.4,"03:30:16",1
"22/06/15","03:50",0.0,17.5,91.4,1007.4,327.3,0.5,1.7,306.5,0.00,16.1,18.6,"03:48:08",1
"22/06/15","04:00",0.2,17.6,91.3,1007.1,351.9,0.7,1.7,339.5,0.00,16.2,18.6,"03:51:28",1
"22/06/15","04:10",0.0,17.6,91.2,1006.9,358.2,0.5,1.1,101.1,0.00,16.2,18.5,"04:02:24",1
"22/06/15","04:20",0.2,17.5,91.1,1007.1,5.8,0.5,1.3,34.2,0.00,16.1,18.4,"04:13:28",1
"22/06/15","04:30",0.0,17.4,91.1,1007.1,334.9,0.5,1.2,323.2,0.00,16.0,18.4,"04:21:36",1
"22/06/15","04:40",0.0,17.4,91.1,1007.1,310.2,0.8,1.4,322.5,0.00,16.0,18.5,"04:35:36",1
"22/06/15","04:50",0.0,17.3,91.2,1007.1,332.6,0.5,1.3,320.4,0.00,15.9,18.6,"04:40:48",1
"22/06/15","05:00",0.2,17.3,91.3,1006.9,336.6,0.6,1.2,338.3,0.00,15.9,18.7,"04:56:16",1
"22/06/15","05:10",0.0,17.2,91.4,1006.7,321.6,0.5,0.9,298.5,0.00,15.8,18.5,"05:01:28",1
"22/06/15","05:20",0.2,17.2,91.5,1006.7,317.1,0.5,1.3,305.2,0.00,15.8,18.3,"05:12:56",1
"22/06/15","05:30",0.6,17.3,91.6,1006.7,345.0,0.5,1.1,352.7,0.00,16.0,18.4,"05:21:28",1
"22/06/15","05:40",0.2,17.2,91.7,1006.4,335.3,0.5,1.2,313.4,0.00,15.9,18.5,"05:34:16",1
"22/06/15","05:50",0.2,17.3,91.8,1006.9,336.8,0.6,1.8,101.4,0.00,16.0,18.7,"05:43:52",1
"22/06/15","06:00",0.0,17.4,92.0,1006.7,342.8,0.5,1.3,15.1,0.00,16.1,18.6,"05:51:36",1
"22/06/15","06:10",0.0,17.4,92.1,1006.7,291.8,0.6,1.1,262.4,0.00,16.1,18.4,"06:07:12",1
"22/06/15","06:20",0.0,17.4,92.2,1006.9,313.9,0.6,1.1,338.1,0.00,16.2,18.4,"06:16:56",1
"22/06/15","06:30",0.0,17.5,92.3,1007.4,294.2,0.5,1.3,302.3,0.00,16.3,18.6,"06:28:00",1
"22/06/15","06:40",0.2,17.5,92.4,1007.1,12.9,0.5,1.4,56.4,0.01,16.3,18.4,"06:38:48",1
"22/06/15","06:50",0.2,17.5,92.6,1007.1,6.9,0.6,2.2,7.9,0.00,16.3,18.5,"06:49:12",1
"22/06/15","07:00",0.0,17.6,92.7,1007.1,21.7,0.5,1.2,21.9,0.00,16.4,18.4,"06:51:36",1
"22/06/15","07:10",0.0,17.7,92.8,1007.1,312.4,0.2,1.0,108.3,0.01,16.6,18.6,"07:02:40",1
"22/06/15","07:20",0.2,17.8,92.8,1007.4,174.4,0.2,0.9,160.7,0.00,16.7,18.4,"07:13:12",1
"22/06/15","07:30",0.0,17.8,92.9,1007.4,352.2,0.1,0.6,128.4,0.01,16.7,18.5,"07:20:56",1
"22/06/15","07:40",0.0,17.9,93.0,1006.9,45.7,0.3,1.2,90.4,0.02,16.8,18.5,"07:34:00",1
"22/06/15","07:50",0.0,18.0,93.0,1007.6,30.8,0.3,1.4,320.4,0.02,16.9,18.5,"07:43:20",1
"22/06/15","08:00",0.0,18.1,93.1,1006.9,67.2,0.3,1.3,111.5,0.04,17.0,18.4,"07:56:16",1
"22/06/15","08:10",0.0,18.3,93.1,1007.1,39.1,0.3,1.6,15.1,0.04,17.2,18.5,"08:04:48",1
"22/06/15","08:20",0.0,18.3,93.2,1007.1,69.8,0.5,1.8,80.9,0.03,17.2,18.4,"08:15:28",1
"22/06/15","08:30",0.2,18.3,93.2,1006.9,71.2,0.5,1.6,72.6,0.05,17.2,18.5,"08:25:52",1
"22/06/15","08:40",0.2,18.4,93.2,1006.9,104.8,0.6,1.8,108.4,0.05,17.3,18.5,"08:35:52",1
"22/06/15","08:50",0.0,18.4,93.2,1006.4,118.0,0.6,1.9,153.6,0.06,17.3,18.5,"08:47:12",1
"22/06/15","09:00",0.2,18.4,93.0,1006.4,97.7,1.0,2.9,99.4,0.06,17.3,18.7,"08:52:16",1
"22/06/15","09:10",0.2,18.4,93.1,1006.4,92.0,1.0,2.4,134.1,0.08,17.3,18.7,"09:05:20",1
"22/06/15","09:20",0.0,18.5,93.2,1006.2,32.0,0.6,1.8,128.7,0.06,17.4,18.6,"09:10:16",1
"22/06/15","09:30",0.0,18.8,93.0,1005.5,350.8,0.8,1.9,295.4,0.11,17.7,18.3,"09:28:56",1
"22/06/15","09:40",0.0,18.7,92.9,1006.7,284.5,1.2,2.2,314.8,0.05,17.6,18.7,"09:33:44",1
"22/06/15","09:50",0.0,19.1,92.8,1006.7,286.5,0.8,2.0,316.4,0.10,17.9,18.6,"09:49:04",1
"22/06/15","10:00",0.0,19.2,92.7,1006.2,325.1,1.1,2.6,355.9,0.05,18.0,18.5,"09:51:44",1
"22/06/15","10:10",0.0,19.4,92.6,1006.9,332.6,0.6,1.3,332.0,0.08,18.2,18.6,"10:06:16",1
"22/06/15","10:20",0.0,20.0,92.4,1006.4,8.0,0.5,1.3,143.5,0.14,18.8,18.7,"10:14:16",1
"22/06/15","10:30",0.0,20.3,92.0,1006.7,340.8,0.6,1.4,12.1,0.14,19.0,18.7,"10:23:36",1
"22/06/15","10:40",0.0,19.8,91.4,1006.7,17.5,0.7,1.9,129.5,0.09,18.4,18.6,"10:35:52",1
"22/06/15","10:50",0.0,19.7,90.9,1006.7,72.6,0.7,1.6,9.4,0.07,18.2,18.6,"10:40:32",1
"22/06/15","11:00",0.0,19.7,90.5,1007.1,59.1,0.6,1.7,131.6,0.07,18.1,18.9,"10:52:08",1
"22/06/15","11:10",0.0,19.8,90.1,1007.1,33.2,0.8,1.7,80.6,0.09,18.2,18.9,"11:01:28",1
"22/06/15","11:20",0.0,19.8,89.5,1007.1,17.6,0.7,2.4,355.4,0.05,18.1,18.8,"11:17:28",1
"22/06/15","11:30",0.0,19.8,89.5,1006.7,12.7,0.7,1.7,74.8,0.06,18.1,18.7,"11:21:04",1
"22/06/15","11:40",0.0,20.1,89.1,1006.7,358.9,0.8,2.2,50.9,0.12,18.3,19.0,"11:34:40",1
"22/06/15","11:50",0.0,20.6,89.0,1005.7,4.8,0.7,2.7,95.2,0.17,18.8,19.0,"11:49:52",1
"22/06/15","12:00",0.0,21.2,88.0,1005.7,37.2,1.0,2.5,127.0,0.30,19.2,19.0,"11:59:12",1
"22/06/15","12:10",0.0,22.4,86.6,1005.5,100.8,1.1,4.4,359.8,0.53,20.1,19.1,"12:08:40",1
"22/06/15","12:20",0.0,23.5,82.9,1004.8,108.6,1.0,2.6,100.5,0.46,20.5,19.1,"12:18:48",1
"22/06/15","12:30",0.0,24.1,77.6,1005.2,76.9,1.2,2.8,129.1,0.51,20.0,19.0,"12:21:12",1
"22/06/15","12:40",0.0,24.8,74.3,1005.0,86.0,1.0,2.8,133.1,0.39,20.0,19.2,"12:33:44",1
"22/06/15","12:50",0.0,24.6,72.6,1004.5,101.2,1.3,2.9,141.9,0.35,19.4,19.0,"12:45:44",1
"22/06/15","13:00",0.0,24.1,72.8,1004.8,107.8,1.6,3.4,157.8,0.31,19.0,19.2,"12:50:56",1
"22/06/15","13:10",0.0,24.6,72.9,1004.1,118.7,0.7,1.8,115.4,0.28,19.5,19.3,"13:08:16",1
"22/06/15","13:20",0.0,24.4,71.5,1004.3,95.5,1.1,2.9,125.5,0.24,19.0,19.4,"13:13:52",1
"22/06/15","13:30",0.0,24.2,71.9,1004.1,99.1,1.0,2.8,131.2,0.20,18.9,19.4,"13:26:16",1
"22/06/15","13:40",0.0,24.4,71.8,1003.8,44.6,0.8,2.0,5.8,0.19,19.0,19.7,"13:37:12",1
"22/06/15","13:50",0.0,24.4,72.0,1003.6,114.9,1.0,2.5,80.8,0.19,19.1,19.6,"13:41:20",1
"22/06/15","14:00",0.0,24.7,71.6,1003.8,97.4,1.1,2.9,130.6,0.28,19.3,19.6,"13:53:28",1
"22/06/15","14:10",0.0,25.2,69.9,1003.4,72.3,1.1,2.9,14.8,0.33,19.4,19.5,"14:06:00",1
"22/06/15","14:20",0.0,25.2,69.8,1003.1,25.6,0.8,3.1,96.1,0.23,19.3,19.7,"14:10:24",1
"22/06/15","14:30",0.0,25.4,69.0,1003.1,86.9,1.1,3.2,51.4,0.32,19.3,19.8,"14:29:44",1
"22/06/15","14:40",0.0,25.2,68.3,1003.1,15.1,1.5,3.7,8.5,0.28,19.0,19.9,"14:38:08",1
"22/06/15","14:50",0.0,25.1,68.9,1002.9,8.3,1.2,2.8,4.7,0.21,19.0,20.1,"14:40:56",1
"22/06/15","15:00",0.0,24.4,69.4,1002.9,39.5,1.3,2.9,21.6,0.11,18.5,19.9,"14:57:36",1
"22/06/15","15:10",0.0,24.0,71.0,1002.6,25.0,1.3,3.5,2.4,0.11,18.5,20.2,"15:07:44",1
"22/06/15","15:20",0.0,24.2,72.4,1002.9,37.1,0.8,2.6,2.6,0.11,19.0,20.0,"15:12:48",1
"22/06/15","15:30",0.0,24.2,72.2,1002.9,27.3,1.0,1.9,3.2,0.10,18.9,20.2,"15:22:56",1
"22/06/15","15:40",0.0,24.5,72.6,1002.9,15.5,0.6,2.5,37.1,0.12,19.3,20.3,"15:33:12",1
"22/06/15","15:50",0.0,24.5,71.9,1002.9,23.6,0.8,2.8,67.1,0.15,19.1,20.2,"15:46:40",1
"22/06/15","16:00",0.0,24.7,71.0,1002.9,12.6,1.2,3.7,0.7,0.21,19.1,20.2,"15:59:12",1
"22/06/15","16:10",0.0,25.1,70.6,1002.9,20.2,1.2,2.5,22.4,0.25,19.4,20.2,"16:02:40",1
"22/06/15","16:20",0.0,25.3,70.4,1002.9,25.5,1.0,3.2,18.7,0.20,19.6,20.3,"16:11:28",1
"22/06/15","16:30",0.0,25.0,69.5,1002.9,94.9,1.1,2.5,7.1,0.17,19.1,20.4,"16:28:32",1
"22/06/15","16:40",0.0,24.9,69.6,1003.1,61.6,1.0,2.1,12.2,0.17,19.0,20.3,"16:38:24",1
"22/06/15","16:50",0.0,24.6,70.0,1002.9,29.6,1.1,2.4,54.2,0.14,18.8,20.4,"16:47:36",1
"22/06/15","17:00",0.0,24.3,71.2,1002.9,28.6,1.1,2.2,87.0,0.11,18.8,20.3,"16:54:08",1
"22/06/15","17:10",0.0,24.3,72.1,1002.9,15.2,1.3,2.6,33.0,0.14,19.0,20.4,"17:02:48",1
"22/06/15","17:20",0.0,24.8,72.4,1003.1,78.6,0.7,3.1,356.0,0.14,19.5,20.5,"17:12:56",1
"22/06/15","17:30",0.0,24.6,70.8,1002.9,356.9,0.8,1.8,35.6,0.12,19.0,20.4,"17:22:40",1
"22/06/15","17:40",0.0,24.3,71.1,1003.1,19.7,0.6,1.6,47.5,0.06,18.8,20.5,"17:35:04",1
"22/06/15","17:50",0.0,24.0,72.4,1003.1,2.8,0.7,1.6,337.3,0.03,18.8,20.5,"17:47:04",1
"22/06/15","18:00",0.0,23.8,74.3,1003.1,9.4,0.8,2.2,1.5,0.03,19.0,20.6,"17:54:24",1
"22/06/15","18:10",0.0,23.2,76.5,1003.8,347.8,1.2,2.2,347.9,0.01,18.9,20.4,"18:01:04",1
"22/06/15","18:20",0.0,22.9,78.1,1003.8,349.4,1.0,1.8,337.1,0.00,18.9,20.7,"18:11:44",1
"22/06/15","18:30",0.0,22.5,79.4,1003.8,17.2,0.3,0.9,356.6,0.00,18.8,20.6,"18:21:20",1
"22/06/15","18:40",0.0,22.2,80.0,1004.1,311.8,0.3,1.1,330.3,0.00,18.6,20.6,"18:33:44",1
"22/06/15","18:50",0.0,22.1,81.1,1004.1,275.2,0.5,1.8,355.2,0.00,18.7,20.6,"18:48:56",1
"22/06/15","19:00",0.0,22.0,83.0,1003.8,334.3,1.7,2.2,350.2,0.00,19.0,20.6,"18:50:08",1
"22/06/15","19:10",0.0,21.4,84.5,1004.1,326.7,1.5,3.1,333.7,0.00,18.7,20.7,"19:01:20",1
"22/06/15","19:20",0.0,21.3,85.7,1004.1,326.6,1.7,2.1,336.8,0.00,18.8,20.6,"19:14:56",1
"22/06/15","19:30",0.0,21.1,86.7,1004.3,328.6,1.3,1.9,333.6,0.00,18.8,20.4,"19:28:08",1
"22/06/15","19:40",0.0,21.2,87.4,1004.5,302.1,1.2,2.5,325.8,0.00,19.1,20.5,"19:38:40",1
"22/06/15","19:50",0.0,21.0,88.0,1005.0,319.4,1.7,2.7,328.4,0.00,19.0,20.6,"19:41:04",1
"22/06/15","20:00",0.0,20.9,88.4,1004.8,310.5,1.3,2.0,329.0,0.00,19.0,20.4,"19:59:44",1
"22/06/15","20:10",0.0,20.7,88.8,1005.0,291.4,1.1,2.2,330.4,0.00,18.8,20.5,"20:00:56",1
"22/06/15","20:20",0.8,20.8,89.3,1004.8,316.1,1.6,2.8,325.7,0.00,19.0,20.6,"20:16:40",1
"22/06/15","20:30",0.0,20.5,89.6,1005.2,311.5,0.7,1.1,311.1,0.00,18.8,20.5,"20:25:52",1
"22/06/15","20:40",0.0,20.5,90.0,1005.2,323.0,0.8,1.6,331.1,0.00,18.8,20.4,"20:38:16",1
"22/06/15","20:50",0.0,20.3,90.2,1005.5,344.6,1.2,1.7,318.0,0.00,18.7,20.5,"20:41:04",1
"22/06/15","21:00",0.2,20.1,90.6,1005.5,305.8,0.7,1.2,333.8,0.00,18.6,20.4,"20:50:16",1
"22/06/15","21:10",0.2,20.1,90.8,1005.7,294.1,1.0,2.1,327.0,0.00,18.6,20.4,"21:04:00",1
"22/06/15","21:20",0.4,20.0,91.2,1005.5,315.4,1.1,1.4,311.4,0.00,18.6,20.3,"21:12:00",1
"22/06/15","21:30",0.0,19.9,91.4,1005.7,309.8,1.0,1.3,324.2,0.00,18.5,20.3,"21:20:08",1
"22/06/15","21:40",0.0,20.0,91.7,1006.2,328.5,1.0,1.3,345.8,0.00,18.6,20.3,"21:36:00",1
"22/06/15","21:50",0.0,19.9,91.9,1006.2,326.3,1.2,1.7,327.4,0.00,18.6,20.4,"21:41:28",1
"22/06/15","22:00",0.0,19.9,92.2,1006.0,303.5,1.0,1.3,336.7,0.00,18.6,20.2,"21:53:12",1
"22/06/15","22:10",0.0,19.9,92.4,1006.0,305.2,1.3,2.1,313.1,0.00,18.7,20.4,"22:05:28",1
"22/06/15","22:20",0.0,19.8,92.7,1006.0,309.5,1.1,1.7,330.3,0.00,18.6,20.3,"22:10:16",1
"22/06/15","22:30",0.0,19.8,92.8,1006.2,286.7,1.1,1.8,339.4,0.00,18.6,20.3,"22:27:36",1
"22/06/15","22:40",0.0,19.8,93.0,1006.2,311.1,1.0,1.8,336.5,0.00,18.7,20.2,"22:39:04",1
"22/06/15","22:50",0.0,19.6,93.2,1006.2,319.6,1.1,1.6,328.2,0.00,18.5,20.2,"22:42:00",1
"22/06/15","23:00",0.0,19.6,93.4,1006.2,299.2,0.7,1.1,307.3,0.00,18.5,20.3,"22:51:36",1
"22/06/15","23:10",0.0,19.6,93.4,1006.2,297.2,0.8,1.1,314.9,0.00,18.5,20.2,"23:04:16",1
"22/06/15","23:20",0.0,19.6,93.6,1006.2,288.7,0.8,1.4,316.9,0.00,18.6,20.2,"23:12:16",1
"22/06/15","23:30",0.0,19.6,93.7,1005.7,291.5,0.8,1.2,324.3,0.00,18.6,20.3,"23:28:08",1
"22/06/15","23:40",0.0,19.6,93.8,1006.0,326.1,1.0,1.4,341.6,0.00,18.6,20.1,"23:31:12",1
"22/06/15","23:50",0.0,19.7,94.0,1006.2,328.8,1.1,1.6,314.9,0.00,18.7,20.0,"23:49:12",1
"22/06/15","24:00",0.0,19.6,94.0,1006.2,308.1,1.0,1.6,332.8,0.00,18.6,20.2,"23:50:08",1
